Regional Weather Roundup
Issued by NWS Mt. Holly, NJ

Home | Current Version | Previous Version | Text Only | Print | Product List | Glossary On
Versions: 1 2 3 4 5 6 7 8 9 10 11 12 13 14 15 16 17 18 19 20 21 22 23 24 25 26 27 28
000
ASUS41 KPHI 181511
RWRPHI

REGIONAL WEATHER ROUNDUP
NATIONAL WEATHER SERVICE MOUNT HOLLY NJ
1000 AM EST WED JAN 18 2017

NOTE:  "FAIR" INDICATES FEW OR NO CLOUDS BELOW 12,000 FEET WITH NO
SIGNIFICANT WEATHER AND/OR OBSTRUCTIONS TO VISIBILITY.

 * = STATION DOES NOT REPORT PRECIPITATION (E.G. RAIN, SNOW, ETC.)
        OR FOG.

NJZ015>026-181600-
SOUTHERN NEW JERSEY

CITY           SKY/WX    TMP DP  RH WIND       PRES   REMARKS
POMONA         CLOUDY    43  41  93 NW10      29.92R
MILLVILLE      CLOUDY    43  43 100 N9        29.91S FOG
MOUNT HOLLY    CLOUDY    40  39  97 N7        29.93R
TRENTON        CLOUDY    41  39  93 N8        29.93R

$$
NJZ001>014-181600-
NORTHERN NEW JERSEY

CITY           SKY/WX    TMP DP  RH WIND       PRES   REMARKS
SUSSEX         CLOUDY    36  36 100 CALM      29.94S FOG
ANDOVER*         N/A     35  34  96 CALM      29.94S
MORRISTOWN     CLOUDY    39  39 100 N6        29.94S FOG     WCI  35
NEWARK         DRIZZLE   40  39  97 N13       29.93S FOG     WCI  32
TETERBORO      CLOUDY    41  38  89 N7        29.94R FOG
CALDWELL       CLOUDY    38  37  97 VRB6      29.94F FOG     WCI  33
SOMERVILLE     CLOUDY    40  37  89 N5        29.93R
ALLAIRE*       FOG       41  39  93 N8        29.93R VSB 1
TOMS RIVER*    CLOUDY    40  40 100 N8        29.92S FOG     WCI  34

$$
PAZ043-044-047-054-055-060>062-066>071-181600-
EASTERN PENNSYLVANIA

CITY           SKY/WX    TMP DP  RH WIND       PRES   REMARKS
PHILADELPHIA   CLOUDY    43  40  89 N8        29.94R
NORTH PHILA    CLOUDY    42  39  89 N6        29.95R
BLUE BELL*     CLOUDY    39  37  93 N5        29.92F
DOYLESTOWN     CLOUDY    40  38  93 N6        29.92R
QUAKERTOWN*    CLOUDY    37  37 100 N3        29.94R
PERKASIE*      CLOUDY    37  37 100 N7        29.94R WCI  32
POTTSTOWN      CLOUDY    40  38  93 NW7       29.95S FOG
LANCASTER      LGT RAIN  40  40 100 W6        29.95R FOG
COATESVILLE    CLOUDY    43  43 100 N8        29.93S
READING        CLOUDY    41  37  86 N6        29.94R
ALLENTOWN      LGT RAIN  40  36  86 VRB6      29.94F
MOUNT POCONO   FOG       32  31  96 NW3       29.88S VSB 1
HAZLETON       CLOUDY    39  37  93 W5        29.93S FOG
LEHIGHTON        N/A     36  36 100 CALM      29.95S
WILKES BARRE   FOG       36  36 100 NE3       29.92R VSB 1/4

$$
DEZALL-MDZ008-012-015-019-020-181600-
DELAWARE AND EASTERN MARYLAND

CITY           SKY/WX    TMP DP  RH WIND       PRES   REMARKS
WILMINGTON     CLOUDY    44  42  93 N8        29.94R
DOVER          CLOUDY    45  45 100 NW9       29.88R FOG
GEORGETOWN     CLOUDY    49  45  86 VRB5      29.92R
EASTON         PTSUNNY   46  46 100 N6        29.97R
ABERDEEN       CLOUDY    47  44  89 N6        29.94R
PATUXENT       FOG       45  45 100 NW5       29.94R VSB 1/4
OCEAN CITY     PTSUNNY   53  50  89 N7        29.91R
WALLOPS ISLAND PTSUNNY   57  52  83 N10       29.91R
CAMBRIDGE      CLOUDY    45  45 100 NW5       29.94R VSB 3/4
SALISBURY      CLOUDY    53  48  83 N9        29.91R

$$
PAZ001-021-NYZ056-072-MDZ011-DCZ001-181600-
OTHER NEARBY LOCATIONS

CITY           SKY/WX    TMP DP  RH WIND       PRES   REMARKS
HARRISBURG     LGT RAIN  41  41 100 NW3       29.96R FOG
STATE COLLEGE  CLOUDY    43  37  81 W6        29.97R
WILLIAMSPORT   LGT RAIN  38  37  97 CALM      29.95R VSB 1/4
BINGHAMTON     FOG       35  35 100 SW5       29.89R VSB 1/2 WCI  31
NEW YORK CITY  CLOUDY    39  38  96 NE7       29.96R FOG     WCI  34
BALTIMORE      CLOUDY    50  47  89 NW12      29.94R
WASHINGTON DC  CLOUDY    53  45  74 NW13      29.96R

$$




USA.gov is the U.S. government's official web portal to all federal, state and local government web resources and services.